Weather History for KHCD - February, 2013

Change the Weather History Date:

Wednesday, February 6, 2013

  Actual Average Record
Temperature  
Mean Temperature 16 °F -  
Max Temperature 29 °F 21 °F 53 °F (2002)
Min Temperature 4 °F 1 °F -25 °F (1982)
Degree Days  
Heating Degree Days 48    
Moisture  
Dew Point 16 °F    
Average Humidity 89    
Maximum Humidity 94    
Minimum Humidity 83    
Precipitation  
Precipitation 0.00 in - - ()
Sea Level Pressure  
Sea Level Pressure 29.96 in    
Wind  
Wind Speed 5 mph (East)    
Max Wind Speed 15 mph    
Max Gust Speed 14 mph    
Visibility 9 miles    
Events Snow    
Averages and records for this station are not official NWS values.
T = Trace of Precipitation, MM = Missing Value Source: NWS Daily Summary

Daily Weather History Graph

Daily Weather History Graph

Search for Another Location

Airport or City:

Trip Planner

Search our weather history database for the weather conditions in past years. The results will help you decide how hot, cold, wet, or windy it might be!

Date:

Astronomy

Feb. 06, 2013 Rise Set
Actual Time 7:30 AM CST 5:33 PM CST
Civil Twilight 6:59 AM CST 6:04 PM CST
Nautical Twilight 6:25 AM CST 6:38 PM CST
Astronomical Twilight 5:50 AM CST 7:13 PM CST
Moon 4:20 AM CST 1:47 PM CST
Length of Visible Light 11h 04m
Length of Day
10h 02m
Waning Crescent, 17% of the Moon is Illuminated
Feb 6
Waning Crescent
Feb 10
New
Feb 17
First Quarter
Feb 25
Full
Mar 4
Last Quarter

Hourly Weather History & Observations

Time (CST) Temp. Windchill Dew Point Humidity Pressure Visibility Wind Dir Wind Speed Gust Speed Precip Events Conditions
12:10 AM 6.8 °F -0.1 °F 5.0 °F 92% 30.06 in 10.0 mi West 3.5 mph - N/A   Overcast
12:25 AM 8.6 °F 2.0 °F 6.8 °F 92% 30.06 in 10.0 mi WSW 3.5 mph - N/A   Overcast
12:45 AM 8.6 °F - 6.8 °F 92% 30.06 in 10.0 mi Calm Calm - N/A   Overcast
1:05 AM 8.6 °F 2.0 °F 6.8 °F 92% 30.06 in 10.0 mi WSW 3.5 mph - N/A   Overcast
1:25 AM 8.6 °F - 6.8 °F 92% 30.06 in 10.0 mi Calm Calm - N/A   Overcast
2:05 AM 8.6 °F - 6.8 °F 92% 30.06 in 10.0 mi Calm Calm - N/A   Scattered Clouds
2:30 AM 6.8 °F - 5.0 °F 92% 30.06 in 10.0 mi Calm Calm - N/A   Overcast
2:43 AM 8.2 °F - 6.3 °F 92% 30.05 in 10.0 mi Calm Calm - N/A   Scattered Clouds
2:49 AM 8.6 °F - 6.6 °F 92% 30.05 in 10.0 mi Calm Calm - N/A   Scattered Clouds
3:08 AM 6.3 °F - 4.1 °F 91% 30.04 in 10.0 mi Calm Calm - N/A   Clear
3:28 AM 4.1 °F -3.2 °F 1.9 °F 91% 30.03 in 10.0 mi ESE 3.5 mph - N/A   Clear
3:49 AM 5.2 °F - 3.2 °F 92% 30.02 in 10.0 mi Calm Calm - N/A   Mostly Cloudy
4:08 AM 6.6 °F -0.3 °F 4.8 °F 92% 30.02 in 10.0 mi SE 3.5 mph - N/A   Overcast
4:28 AM 8.1 °F - 6.3 °F 92% 30.03 in 10.0 mi Calm Calm - N/A   Overcast
4:48 AM 9.1 °F - 7.3 °F 92% 30.04 in 10.0 mi Calm Calm - N/A   Mostly Cloudy
5:08 AM 9.1 °F - 7.2 °F 92% 30.05 in 10.0 mi Calm Calm - N/A   Mostly Cloudy
5:28 AM 9.1 °F - 7.2 °F 92% 30.05 in 10.0 mi Calm Calm - N/A   Scattered Clouds
5:48 AM 9.1 °F 2.6 °F 6.8 °F 90% 30.03 in 10.0 mi ESE 3.5 mph - N/A   Mostly Cloudy
6:08 AM 9.1 °F -0.7 °F 6.8 °F 90% 30.02 in 10.0 mi ESE 5.8 mph - N/A   Overcast
6:28 AM 9.3 °F -0.5 °F 7.0 °F 90% 30.01 in 10.0 mi SE 5.8 mph - N/A   Mostly Cloudy
7:08 AM 11.7 °F 3.7 °F 9.1 °F 90% 30.02 in 10.0 mi SE 4.6 mph - N/A   Overcast
7:29 AM 13.3 °F 4.2 °F 10.6 °F 89% 30.02 in 10.0 mi ESE 5.8 mph - N/A   Overcast
7:48 AM 14.0 °F 6.5 °F 11.3 °F 89% 30.02 in 10.0 mi SE 4.6 mph - N/A   Overcast
8:08 AM 14.0 °F 3.9 °F 11.3 °F 89% 30.02 in 10.0 mi ESE 6.9 mph - N/A   Overcast
8:29 AM 15.3 °F 4.4 °F 12.6 °F 89% 30.00 in 10.0 mi East 8.1 mph - N/A   Overcast
8:48 AM 16.7 °F 7.2 °F 13.6 °F 88% 30.01 in 10.0 mi ESE 6.9 mph - N/A   Overcast
9:08 AM 16.7 °F 5.3 °F 13.8 °F 88% 30.00 in 1.8 mi ESE 9.2 mph - N/A Snow Light Snow
9:28 AM 16.7 °F 4.5 °F 14.0 °F 89% 29.99 in 5.0 mi East 10.4 mph - N/A   Overcast
9:49 AM 18.0 °F 6.9 °F 14.9 °F 88% 29.98 in 10.0 mi ESE 9.2 mph - N/A   Overcast
10:08 AM 19.2 °F 7.7 °F 15.8 °F 87% 29.98 in 10.0 mi ESE 10.4 mph - N/A   Mostly Cloudy
10:28 AM 19.2 °F 7.0 °F 15.4 °F 85% 29.97 in 10.0 mi East 11.5 mph - N/A   Mostly Cloudy
10:43 AM 19.9 °F 6.7 °F 16.0 °F 85% 29.96 in 10.0 mi ESE 13.8 mph - N/A   Overcast
11:08 AM 21.7 °F 10.2 °F 17.6 °F 84% 29.96 in 10.0 mi SE 11.5 mph - N/A   Overcast
11:28 AM 21.7 °F 9.0 °F 17.6 °F 84% 29.94 in 10.0 mi ESE 13.8 mph - N/A   Overcast
11:48 AM 22.1 °F 10.0 °F 18.3 °F 85% 29.93 in 10.0 mi ESE 12.7 mph - N/A   Mostly Cloudy
12:07 PM 22.3 °F 9.2 °F 18.3 °F 85% 29.90 in 10.0 mi East 15.0 mph - N/A   Mostly Cloudy
12:28 PM 24.3 °F 13.9 °F 19.9 °F 84% 29.90 in 10.0 mi East 10.4 mph 13.8 mph N/A   Overcast
12:48 PM 24.3 °F 15.4 °F 19.8 °F 83% 29.91 in 10.0 mi East 8.1 mph - N/A   Scattered Clouds
1:07 PM 26.6 °F 17.5 °F 22.1 °F 83% 29.91 in 10.0 mi East 9.2 mph - N/A   Clear
1:29 PM 26.6 °F 18.2 °F 22.5 °F 84% 29.90 in 10.0 mi East 8.1 mph - N/A   Clear
1:48 PM 27.0 °F 18.0 °F 22.5 °F 83% 29.89 in 10.0 mi East 9.2 mph - N/A   Clear
2:08 PM 29.3 °F 22.3 °F 24.8 °F 83% 29.88 in 10.0 mi East 6.9 mph - N/A   Clear
2:28 PM 29.3 °F 21.5 °F 25.2 °F 85% 29.86 in 10.0 mi East 8.1 mph - N/A   Clear
2:48 PM 29.3 °F 20.2 °F 25.3 °F 85% 29.85 in 7.0 mi East 10.4 mph - N/A   Clear
3:08 PM 29.3 °F 20.2 °F 25.3 °F 85% 29.86 in 10.0 mi East 10.4 mph - N/A   Clear
3:27 PM 29.3 °F 20.8 °F 25.0 °F 84% 29.86 in 10.0 mi ENE 9.2 mph - N/A   Clear
3:48 PM 29.3 °F 20.2 °F 24.8 °F 83% 29.87 in 10.0 mi ENE 10.4 mph - N/A   Clear
4:09 PM 29.3 °F 20.2 °F 24.8 °F 83% 29.86 in 10.0 mi East 10.4 mph - N/A   Clear
4:46 PM 29.3 °F 20.8 °F 25.2 °F 85% 29.86 in 10.0 mi ENE 9.2 mph - N/A   Clear
5:08 PM 28.9 °F 21.1 °F 24.8 °F 84% 29.87 in 7.0 mi ENE 8.1 mph - N/A   Clear
5:27 PM 26.6 °F 17.5 °F 23.0 °F 86% 29.87 in 7.0 mi ENE 9.2 mph - N/A   Clear
5:48 PM 26.6 °F 17.5 °F 23.4 °F 88% 29.87 in 7.0 mi ENE 9.2 mph - N/A   Clear
6:08 PM 26.6 °F 16.8 °F 23.5 °F 88% 29.88 in 7.0 mi ENE 10.4 mph - N/A   Clear
6:28 PM 26.6 °F 17.5 °F 23.7 °F 89% 29.89 in 7.0 mi ENE 9.2 mph - N/A   Clear
6:48 PM 26.6 °F 18.2 °F 23.7 °F 89% 29.89 in 7.0 mi ENE 8.1 mph - N/A   Clear
7:08 PM 26.6 °F 17.5 °F 23.9 °F 90% 29.89 in 7.0 mi NE 9.2 mph - N/A   Clear
7:29 PM 24.3 °F 15.4 °F 21.7 °F 90% 29.91 in 7.0 mi NE 8.1 mph - N/A   Clear
7:48 PM 23.5 °F 13.7 °F 21.2 °F 91% 29.91 in 7.0 mi NE 9.2 mph - N/A   Clear
8:08 PM 22.8 °F 12.9 °F 20.5 °F 91% 29.91 in 7.0 mi NE 9.2 mph - N/A   Clear
8:28 PM 21.9 °F 11.7 °F 19.8 °F 91% 29.91 in 7.0 mi NE 9.2 mph - N/A   Clear
8:48 PM 21.7 °F 12.3 °F 19.4 °F 91% 29.91 in 7.0 mi ENE 8.1 mph - N/A   Clear
9:08 PM 20.8 °F 12.1 °F 18.9 °F 92% 29.92 in 5.0 mi NE 6.9 mph - N/A   Clear
9:28 PM 21.6 °F 13.0 °F 19.8 °F 93% 29.93 in 5.0 mi NNE 6.9 mph - N/A   Clear
9:48 PM 20.7 °F 11.0 °F 18.9 °F 93% 29.93 in 5.0 mi NNE 8.1 mph - N/A   Clear
10:08 PM 20.3 °F 9.8 °F 18.5 °F 93% 29.94 in 5.0 mi NNE 9.2 mph - N/A   Clear
10:28 PM 19.2 °F 9.3 °F 17.4 °F 93% 29.94 in 5.0 mi NE 8.1 mph - N/A   Clear
10:48 PM 19.2 °F 9.3 °F 17.4 °F 93% 29.94 in 5.0 mi NNE 8.1 mph - N/A   Clear
11:08 PM 19.2 °F 7.7 °F 17.6 °F 93% 29.94 in 5.0 mi NNE 10.4 mph - N/A   Clear
11:28 PM 19.2 °F 7.0 °F 17.6 °F 93% 29.94 in 5.0 mi NE 11.5 mph - N/A   Clear
11:48 PM 20.3 °F 10.6 °F 18.9 °F 94% 29.96 in 5.0 mi North 8.1 mph - N/A   Scattered Clouds